Temperature
16 16 17 17 17 17 17 17 17 16 16 16 16 16 16 16 16 16 16 16 16 16 16 16 16 16 16 16 16 16 16 16 16 15 15 15 15 15 15 15 15 15 15
17 16 17 17 17 17 17 17 17 16 16 16 16 16 16 16 16 16 16 16 16 16 16 16 16 16 16 16 16 16 16 16 16 16 15 16 15 15 15 15 15 15 15
17 16 17 17 17 17 17 16 16 16 16 16 16 16 16 16 16 16 16 16 16 16 16 16 16 16 16 16 16 16 16 16 16 16 15 15 15 15 15 15 15 15 15
16 16 16 16 17 17 17 16 16 16 16 16 16 16 16 16 16 16 16 16 16 16 16 16 16 16 16 16 16 16 16 16 16 15 14 14 15 15 15 15 15 15 15
16 16 16 16 17 17 16 16 16 16 16 16 16 15 16 16 16 16 16 16 16 16 16 16 16 16 16 16 16 16 16 16 16 15 15 15 15 15 15 15 15 15 15
16 16 16 16 16 16 16 16 16 16 16 16 16 16 16 16 16 16 16 16 16 16 16 16 16 16 16 16 16 16 16 16 15 15 15 15 15 15 15 15 15 15 15
15 15 16 16 16 16 16 16 16 16 16 16 16 16 16 16 16 16 16 16 16 16 16 16 16 16 16 16 16 16 16 16 15 15 15 15 15 15 15 15 15 15 15
15 15 16 16 16 16 16 16 16 16 16 16 16 16 16 16 16 16 16 16 16 16 16 16 16 16 16 16 16 16 16 16 15 15 15 15 15 15 15 15 15 15 15
15 15 15 15 15 15 16 16 16 16 16 16 16 16 16 16 16 16 16 16 16 16 16 16 16 16 16 16 16 16 16 16 15 15 15 15 15 15 15 15 14 14 14
15 15 15 15 15 15 15 16 16 16 16 15 15 16 16 16 16 16 16 16 16 16 16 16 16 16 16 16 16 16 16 15 15 15 14 15 15 14 14 14 14 14 14
15 15 15 14 14 14 14 15 15 15 15 15 15 15 15 15 15 15 16 16 16 16 16 16 16 16 16 16 16 15 15 14 14 14 14 15 14 14 14 14 14 14 14
15 15 15 14 14 14 14 14 14 15 15 15 15 15 15 15 15 15 15 15 16 16 16 16 16 15 15 15 15 15 14 14 14 14 14 14 14 14 14 14 14 13 13
14 14 14 14 14 14 14 14 14 14 15 15 15 15 15 15 15 15 15 15 15 15 15 15 15 15 15 15 15 14 14 14 14 14 14 14 14 14 14 14 13 13 13
14 14 14 14 14 14 14 14 14 14 14 15 15 15 15 15 15 15 15 15 15 15 15 15 15 15 15 15 14 14 14 14 14 14 14 14 14 14 14 13 13 13 13
14 14 14 14 14 14 14 14 14 14 14 15 15 15 15 15 15 15 15 15 15 15 15 15 15 14 14 14 14 14 14 14 14 14 14 14 14 14 13 13 13 13 13
14 14 14 14 14 14 14 15 15 14 15 15 15 15 15 15 15 15 15 15 15 15 15 15 14 14 14 14 14 14 14 14 14 14 13 14 14 13 13 13 13 13 12
13 14 14 14 14 14 14 14 15 15 15 15 15 15 15 15 15 15 15 15 15 15 15 14 14 14 14 14 14 14 13 14 14 14 14 13 13 13 13 13 13 12 12
13 13 13 14 14 14 14 14 14 14 15 15 15 15 15 15 15 15 15 15 15 15 14 14 14 14 14 14 13 13 13 14 14 13 13 13 13 13 13 13 13 12 12
13 13 13 14 14 14 14 14 14 14 14 14 15 15 15 15 15 15 14 14 14 14 14 14 14 14 13 13 13 13 13 13 14 14 13 13 13 13 13 13 12 12 12
13 13 13 13 13 13 13 14 14 14 14 14 14 15 15 15 15 14 14 14 14 14 14 14 14 13 13 13 13 13 13 13 14 14 14 13 13 13 13 12 12 12 12
13 13 13 13 13 13 13 14 14 14 14 14 14 14 14 14 14 14 14 14 14 14 14 13 13 13 13 13 13 13 13 13 14 14 14 13 13 13 13 12 12 12 11
13 13 13 13 13 13 13 14 14 14 14 14 14 14 14 14 14 14 14 14 14 14 13 13 13 13 13 13 12 12 12 13 13 13 13 13 13 13 12 12 12 11 11
13 13 13 13 13 13 13 13 13 13 13 13 14 14 14 14 14 14 14 14 14 14 13 13 13 13 13 13 12 12 12 13 12 12 13 13 12 12 12 11 11 11 11
12 13 13 13 13 13 13 13 13 13 13 14 14 14 14 14 14 14 13 13 13 13 13 13 13 13 12 12 12 12 12 12 12 12 12 12 12 11 11 11 11 10 10
12 12 12 13 13 13 13 13 13 13 13 13 13 13 13 13 13 13 13 13 13 13 13 13 13 13 12 12 12 12 12 12 11 11 11 11 11 11 11 11 10 10 10
12 12 12 12 13 13 13 13 13 13 13 13 13 13 13 13 13 13 13 13 13 13 13 13 13 12 12 12 12 12 12 12 11 11 10 10 10 10 10 10 10 10 9
Wind_Speed
16 21 26 23 22 21 20 20 20 20 21 21 21 21 20 20 20 20 20 19 19 19 19 19 18 18 18 18 18 19 18 18 19 18 19 19 18 18 17 14 14 17 18
20 24 26 24 23 22 21 20 20 21 21 21 22 22 21 21 21 21 20 20 20 20 19 19 18 18 18 18 18 18 18 17 17 15 16 18 17 17 17 17 17 16 17
22 25 26 24 23 22 21 21 20 21 20 21 22 22 21 21 21 21 20 20 20 19 19 19 18 18 17 17 17 17 16 15 14 10 10 15 16 16 16 16 17 17 17
22 24 25 25 24 22 22 21 21 21 21 21 22 22 21 21 21 21 21 20 20 19 19 18 18 17 16 16 16 16 15 14 10 6 11 13 14 15 16 16 16 16 16
20 22 24 25 24 23 22 21 21 21 21 21 21 21 21 21 21 21 21 20 19 19 18 18 17 16 16 15 15 15 14 12 8 10 12 12 13 14 15 15 15 15 15
19 21 24 25 24 23 22 21 21 21 21 21 21 21 21 21 21 21 20 20 19 18 18 17 16 16 15 14 14 14 12 9 8 11 11 11 12 13 13 13 13 13 14
19 20 24 24 23 23 22 21 21 21 21 21 21 21 21 21 21 21 20 20 18 17 17 16 16 15 14 14 13 12 10 6 9 10 10 11 12 12 12 12 12 12 12
18 19 23 23 23 22 22 21 20 20 20 21 20 20 21 21 21 20 20 19 18 17 16 16 15 15 14 13 12 11 8 6 9 9 10 10 10 10 11 11 11 11 11
18 18 19 22 22 21 20 20 20 20 20 20 20 20 20 20 20 20 19 18 17 16 16 15 14 14 13 12 11 10 8 5 7 8 8 8 8 9 9 9 9 9 9
17 17 18 20 21 21 20 19 19 19 19 19 20 20 20 19 19 18 18 17 16 15 15 14 14 13 12 11 10 9 7 4 7 7 6 7 6 7 7 7 7 7 7
16 16 17 18 19 19 19 20 19 19 19 19 19 20 19 17 17 17 17 17 16 15 14 13 12 12 11 10 9 7 5 4 6 5 5 6 5 5 5 5 5 5 5
17 17 16 16 17 18 17 18 18 17 18 17 17 19 16 15 14 14 17 16 15 14 13 12 11 11 8 8 8 6 4 4 4 4 5 4 3 3 3 3 3 3 3
17 17 16 15 16 17 14 15 13 14 15 15 17 16 14 13 13 13 13 14 13 13 11 11 10 7 6 5 5 4 3 3 2 3 4 2 1 1 1 1 1 1 2
15 17 16 16 15 16 15 13 13 11 11 12 14 15 13 10 11 11 10 11 11 10 9 9 7 7 6 6 5 4 3 2 2 1 3 2 1 2 2 1 2 2 2
13 16 17 16 16 14 14 12 12 11 12 13 13 14 14 10 10 10 9 10 10 9 9 8 7 7 6 6 4 3 3 2 2 2 2 3 3 3 3 3 3 3 3
13 13 16 16 15 14 13 13 12 12 12 12 12 14 14 12 10 9 9 9 9 9 8 8 7 6 5 4 4 4 3 3 3 3 3 3 4 4 4 5 5 5 4
12 13 14 17 16 15 14 14 12 12 12 12 12 14 14 13 12 10 8 8 8 9 9 7 7 6 5 4 4 4 3 4 4 4 4 4 3 4 5 5 5 5 4
12 13 13 13 15 15 12 13 11 12 12 11 12 13 14 14 13 11 8 8 9 9 8 7 6 6 5 5 4 3 3 3 4 4 4 3 3 3 3 3 3 3 3
11 12 12 13 15 14 12 11 11 12 12 11 12 12 14 14 14 12 9 8 10 8 7 6 6 6 5 5 3 3 3 3 3 4 4 4 3 3 3 2 2 2 3
10 11 11 11 13 13 10 8 9 10 10 10 11 12 14 14 15 13 9 10 10 7 7 7 7 6 5 4 3 3 3 3 3 3 4 3 2 2 3 2 2 2 2
10 10 10 10 11 10 9 8 9 10 9 9 10 13 14 14 14 12 9 9 9 8 8 8 7 7 6 5 4 4 4 3 3 2 2 2 2 2 2 1 1 2 1
8 10 11 11 11 10 9 9 7 8 8 9 8 11 14 14 14 12 11 9 9 8 9 9 8 6 5 5 4 3 3 4 3 2 1 1 2 2 1 1 1 1 1
7 9 10 12 12 12 11 8 6 6 6 7 9 9 11 13 14 13 12 10 10 9 9 10 9 9 7 6 6 4 4 3 2 3 3 2 2 2 1 1 1 1 2
7 6 9 10 11 12 11 10 11 10 10 10 9 9 11 13 13 14 13 12 10 9 9 9 9 9 8 7 5 5 5 3 3 2 3 3 2 2 2 1 1 1 1
6 6 7 8 9 10 11 12 12 10 9 7 8 10 11 10 12 12 13 12 10 9 10 9 9 9 8 8 6 4 5 4 6 5 4 3 3 3 2 2 2 1 1
5 6 6 8 8 9 11 12 13 12 11 10 11 11 10 9 9 11 11 11 10 9 10 9 9 10 8 7 6 5 5 4 5 5 6 5 4 2 2 2 2 1 1
Wind_Direction
163 159 155 155 153 151 149 148 146 147 147 146 145 143 141 138 135 132 130 127 124 121 117 112 109 105 101 97 94 91 90 87 83 80 79 77 75 74 69 64 73 73 69
157 157 154 155 154 152 150 148 146 146 147 147 146 145 143 140 137 134 132 130 125 122 118 115 112 108 105 101 97 93 92 90 87 86 91 84 76 73 71 65 64 72 69
155 156 156 155 154 152 150 148 147 147 148 148 146 145 144 141 138 136 134 131 127 123 119 116 112 109 107 104 100 97 95 93 90 91 99 89 82 76 75 74 73 73 71
155 156 159 154 154 153 151 150 150 151 150 149 148 147 146 143 140 139 136 132 127 123 119 115 113 112 109 107 104 101 98 94 90 90 86 84 83 77 75 74 73 73 72
157 158 155 154 154 154 153 153 152 153 152 150 148 148 146 144 142 140 136 130 125 122 121 118 116 114 112 109 107 104 101 97 95 88 85 83 82 78 75 74 73 73 73
159 158 154 155 155 155 155 155 154 153 152 149 148 148 146 145 142 139 133 128 125 124 123 120 118 115 113 112 109 106 104 108 109 90 87 85 84 81 78 76 76 75 75
160 157 156 156 156 156 156 156 157 156 154 151 150 149 148 146 142 137 133 131 130 129 126 122 119 117 115 113 111 109 105 95 94 91 86 84 84 83 82 80 78 77 76
161 157 158 157 157 158 157 157 158 157 155 154 153 151 149 146 142 139 136 135 134 132 129 125 122 119 118 116 113 112 109 104 98 92 88 86 81 84 83 83 82 80 78
163 158 159 161 161 158 156 156 157 158 156 155 153 149 145 143 142 141 140 138 136 134 130 127 125 122 120 119 117 112 105 98 99 93 92 89 85 86 87 86 85 83 80
167 163 162 164 165 164 161 156 155 154 153 151 147 142 140 141 142 143 144 140 137 134 131 129 127 125 123 122 120 118 123 138 103 102 95 94 90 89 91 92 90 89 86
171 167 165 166 166 166 164 159 156 152 151 147 143 140 145 151 151 153 147 140 138 136 134 132 130 128 127 125 125 133 152 119 106 95 96 97 99 94 96 98 99 96 93
175 169 168 169 168 166 162 163 165 162 160 161 157 157 160 158 156 154 143 142 139 137 135 132 132 140 152 143 141 166 145 128 114 107 103 105 110 106 103 109 112 111 109
179 173 174 169 170 168 165 166 166 166 166 166 164 164 162 157 154 156 155 152 151 152 151 145 157 163 164 152 157 157 139 127 119 115 117 115 124 141 135 139 143 148 148
184 178 175 172 171 173 169 168 168 167 168 167 168 168 165 164 166 166 168 167 167 170 165 171 172 167 168 166 170 162 155 154 145 129 123 150 247 239 230 235 232 224 213
190 181 174 175 175 174 172 170 172 171 172 170 171 174 174 172 173 170 171 172 176 174 174 177 178 173 177 177 179 182 188 193 190 203 183 189 242 259 258 249 249 244 234
190 182 179 179 179 176 176 175 174 174 174 174 175 179 179 178 176 175 175 178 179 181 181 183 182 182 187 192 195 202 215 222 229 238 248 218 221 245 261 259 253 245 243
195 183 187 182 180 181 180 178 175 176 177 178 178 181 183 182 180 180 180 182 182 182 183 185 184 193 194 200 212 220 231 239 240 243 246 254 240 228 246 257 258 254 250
203 188 190 183 180 182 182 181 180 181 181 182 181 184 188 187 186 185 187 188 184 183 187 188 192 196 200 211 219 221 232 239 249 252 250 250 255 251 231 235 261 265 262
208 197 190 188 182 184 185 185 184 182 185 186 185 187 190 191 191 191 193 191 186 188 193 193 200 205 208 214 221 234 244 247 252 252 254 252 249 251 259 217 237 269 276
207 199 191 193 184 184 185 185 186 184 187 189 190 191 191 193 194 194 194 194 189 192 196 198 201 208 215 216 217 236 249 251 251 251 253 246 236 236 244 244 231 216 238
199 192 191 194 187 181 184 183 189 188 188 191 194 195 195 196 194 194 192 193 193 198 201 202 203 207 211 210 223 237 232 227 230 236 240 236 215 216 220 226 243 252 234
199 192 191 196 193 189 192 188 192 189 188 191 192 195 197 197 195 196 197 195 194 198 202 203 203 208 207 206 221 237 237 213 195 195 201 211 214 193 191 226 252 277 290
200 200 198 196 199 197 194 187 180 187 181 188 193 195 197 196 195 194 197 198 197 199 203 204 206 212 213 207 221 231 239 238 206 195 193 198 201 203 200 195 276 300 307
209 209 202 200 205 202 194 192 189 200 200 201 196 195 194 198 198 197 198 200 200 202 205 206 208 213 217 214 211 230 251 268 250 235 196 192 197 221 217 201 232 257 293
210 208 202 198 202 201 197 196 198 209 210 202 196 196 195 196 200 200 200 200 201 202 204 205 207 210 215 218 211 203 218 233 243 253 252 220 214 215 224 242 246 257 297
214 205 201 197 206 204 204 199 200 206 207 203 199 199 199 198 199 199 199 200 202 202 201 201 207 210 212 215 214 208 207 212 216 226 245 252 254 232 225 232 233 234 248
Height
1506 1509 1512 1516 1520 1522 1525 1527 1529 1531 1533 1535 1537 1539 1541 1542 1544 1545 1547 1548 1549 1550 1551 1552 1552 1553 1553 1553 1554 1554 1555 1555 1555 1555 1555 1555 1555 1555 1555 1555 1555 1554 1553
1504 1508 1512 1516 1519 1522 1525 1527 1529 1531 1534 1536 1538 1540 1541 1543 1545 1547 1548 1550 1551 1552 1553 1553 1554 1555 1555 1556 1556 1557 1557 1557 1557 1558 1558 1558 1558 1558 1557 1557 1556 1556 1555
1504 1507 1511 1515 1519 1522 1524 1527 1529 1531 1534 1536 1538 1540 1542 1544 1546 1548 1550 1551 1552 1553 1554 1555 1556 1557 1557 1558 1558 1559 1559 1560 1560 1560 1561 1561 1560 1560 1559 1559 1558 1558 1557
1504 1508 1511 1515 1518 1521 1524 1527 1529 1531 1534 1536 1539 1541 1543 1545 1547 1549 1551 1552 1554 1555 1556 1557 1558 1559 1560 1560 1561 1561 1561 1562 1562 1562 1564 1563 1562 1562 1561 1561 1560 1560 1559
1505 1508 1511 1515 1518 1521 1524 1527 1529 1532 1534 1537 1539 1542 1544 1546 1548 1550 1552 1554 1555 1557 1558 1559 1560 1561 1562 1562 1563 1563 1564 1564 1564 1565 1565 1565 1564 1564 1563 1563 1562 1561 1561
1505 1509 1511 1515 1518 1521 1524 1527 1529 1532 1535 1537 1540 1542 1545 1547 1549 1551 1553 1555 1557 1558 1559 1561 1562 1563 1563 1564 1565 1565 1565 1566 1566 1566 1566 1566 1566 1565 1565 1564 1564 1563 1562
1505 1509 1511 1515 1518 1521 1524 1527 1530 1532 1535 1538 1540 1543 1546 1548 1550 1552 1554 1556 1558 1559 1561 1562 1563 1564 1565 1566 1566 1567 1567 1567 1568 1568 1568 1568 1567 1567 1566 1566 1565 1565 1564
1505 1508 1511 1515 1518 1521 1524 1527 1530 1533 1535 1538 1541 1544 1546 1549 1551 1553 1555 1557 1559 1561 1562 1564 1565 1566 1567 1567 1568 1568 1569 1569 1569 1569 1569 1569 1569 1568 1568 1567 1567 1566 1565
1505 1507 1511 1514 1518 1521 1524 1527 1530 1533 1536 1539 1542 1544 1547 1550 1552 1554 1556 1558 1560 1562 1563 1565 1566 1567 1568 1569 1569 1570 1570 1570 1571 1571 1571 1570 1570 1569 1569 1568 1568 1567 1566
1504 1506 1510 1514 1517 1521 1524 1527 1530 1533 1536 1539 1542 1545 1548 1550 1552 1555 1557 1559 1561 1563 1564 1566 1567 1568 1569 1570 1570 1571 1571 1571 1572 1572 1572 1571 1571 1570 1570 1569 1569 1568 1567
1502 1505 1509 1513 1516 1520 1523 1526 1530 1533 1536 1539 1542 1545 1548 1551 1553 1555 1558 1560 1562 1563 1565 1567 1568 1569 1570 1570 1571 1571 1572 1573 1573 1573 1572 1572 1571 1571 1570 1570 1569 1568 1568
1500 1503 1507 1511 1515 1519 1522 1525 1529 1533 1536 1539 1542 1545 1548 1550 1553 1555 1558 1560 1562 1564 1566 1567 1568 1569 1570 1571 1571 1572 1573 1573 1573 1573 1573 1572 1572 1571 1571 1570 1570 1569 1568
1498 1501 1505 1509 1513 1517 1520 1524 1528 1531 1535 1538 1541 1544 1547 1550 1552 1555 1557 1560 1562 1564 1565 1567 1568 1570 1571 1571 1572 1573 1573 1573 1574 1573 1573 1572 1572 1571 1571 1570 1570 1569 1568
1496 1499 1503 1507 1511 1515 1518 1522 1525 1529 1533 1536 1539 1542 1545 1548 1551 1554 1556 1559 1561 1563 1564 1566 1568 1569 1570 1571 1572 1573 1573 1573 1573 1573 1573 1572 1571 1571 1570 1570 1569 1569 1568
1493 1496 1500 1504 1509 1512 1516 1519 1523 1527 1531 1534 1537 1541 1544 1547 1550 1553 1555 1558 1560 1562 1564 1565 1567 1568 1570 1571 1571 1572 1572 1572 1572 1572 1572 1571 1571 1570 1570 1569 1569 1568 1567
1490 1493 1498 1502 1506 1510 1514 1517 1521 1525 1529 1532 1535 1539 1542 1546 1549 1551 1554 1556 1559 1561 1563 1564 1566 1567 1569 1570 1571 1571 1571 1571 1571 1571 1571 1571 1570 1570 1569 1568 1568 1567 1566
1488 1492 1497 1500 1504 1508 1512 1515 1519 1523 1526 1530 1534 1537 1541 1544 1547 1550 1553 1555 1557 1559 1561 1563 1565 1566 1568 1568 1569 1570 1570 1570 1570 1570 1570 1569 1569 1568 1567 1567 1566 1566 1565
1485 1489 1493 1496 1501 1505 1509 1513 1517 1521 1524 1528 1532 1535 1539 1542 1545 1548 1551 1553 1556 1558 1560 1561 1563 1565 1566 1567 1568 1568 1568 1568 1568 1568 1568 1567 1567 1566 1566 1565 1565 1564 1564
1483 1487 1490 1494 1498 1503 1507 1510 1514 1518 1522 1526 1529 1533 1536 1540 1543 1546 1549 1551 1553 1556 1558 1559 1561 1563 1564 1565 1565 1566 1566 1566 1566 1566 1565 1565 1564 1564 1564 1563 1563 1562 1562
1480 1484 1487 1491 1495 1500 1505 1508 1511 1515 1519 1523 1526 1530 1534 1537 1540 1543 1546 1549 1551 1553 1555 1557 1559 1560 1562 1563 1563 1563 1564 1563 1563 1563 1563 1562 1562 1562 1561 1561 1560 1560 1559
1477 1481 1484 1488 1492 1496 1501 1504 1507 1511 1515 1519 1523 1527 1531 1534 1537 1540 1543 1545 1548 1550 1553 1555 1556 1558 1559 1560 1561 1561 1561 1560 1560 1560 1560 1560 1559 1559 1559 1558 1558 1557 1557
1474 1478 1482 1486 1489 1493 1497 1501 1505 1509 1513 1516 1520 1524 1527 1531 1534 1537 1540 1542 1544 1547 1549 1552 1553 1555 1556 1557 1558 1559 1559 1559 1557 1557 1557 1557 1557 1556 1556 1555 1555 1554 1554
1473 1476 1480 1483 1486 1490 1493 1497 1501 1505 1509 1513 1516 1520 1523 1527 1530 1533 1536 1539 1541 1543 1546 1548 1550 1552 1553 1554 1555 1556 1557 1556 1556 1554 1554 1554 1553 1553 1553 1552 1552 1551 1551
1471 1474 1477 1480 1483 1486 1488 1492 1496 1499 1503 1507 1511 1515 1519 1523 1526 1529 1532 1534 1537 1539 1541 1544 1546 1547 1549 1550 1551 1552 1553 1553 1554 1553 1551 1551 1550 1550 1550 1549 1549 1548 1548
1469 1471 1474 1477 1479 1481 1484 1488 1492 1496 1499 1503 1507 1511 1514 1518 1521 1524 1527 1529 1532 1535 1537 1539 1541 1543 1544 1545 1546 1547 1548 1548 1549 1550 1549 1548 1547 1546 1546 1546 1545 1544 1544
1467 1469 1472 1474 1476 1478 1481 1484 1488 1492 1495 1499 1502 1505 1509 1512 1515 1518 1521 1524 1527 1529 1532 1534 1536 1538 1539 1541 1542 1543 1543 1544 1544 1545 1545 1545 1544 1543 1542 1541 1541 1540 1540